• Em Portugal
  • Lista de países
  • Para 7 dias
  • Temperatura da água
  • Mapas de satélite
  • Mapa do tempo
  • Widgets de tempo
  • user-avatar
    Iniciar Sessão

    Previsão horária em Wien

    Hoje, 22 Outubro, Segunda-feira

    Tempo Temperatura Precipitação Vento Pressão Humidade
    00:00 +6°C° 0 mm 2 m/s 751 mmHg 83%
    01:00 +6°C° 0 mm 2 m/s 751 mmHg 84%
    02:00 +6°C° 0 mm 2 m/s 751 mmHg 85%
    03:00 +6°C° 0 mm 2 m/s 751 mmHg 86%
    04:00 +5°C° 0 mm 2 m/s 750 mmHg 87%
    05:00 +5°C° 0 mm 2 m/s 750 mmHg 86%
    06:00 +6°C° 0 mm 2 m/s 750 mmHg 85%
    07:00 +6°C° 0 mm 2 m/s 750 mmHg 85%
    08:00 +8°C° 0 mm 2 m/s 750 mmHg 77%
    09:00 +9°C° 0 mm 2 m/s 750 mmHg 69%
    10:00 +12°C° 0 mm 2 m/s 750 mmHg 61%
    11:00 +14°C° 0 mm 2 m/s 750 mmHg 57%
    12:00 +15°C° 0 mm 2 m/s 750 mmHg 53%
    13:00 +16°C° 0 mm 3 m/s 749 mmHg 49%
    14:00 +15°C° 0 mm 2 m/s 749 mmHg 51%
    15:00 +15°C° 0 mm 2 m/s 749 mmHg 53%
    16:00 +15°C° 0 mm 2 m/s 749 mmHg 55%
    17:00 +13°C° 0 mm 2 m/s 749 mmHg 60%
    18:00 +12°C° 0 mm 2 m/s 749 mmHg 64%
    19:00 +10°C° 0 mm 2 m/s 750 mmHg 69%
    20:00 +9°C° 0 mm 3 m/s 750 mmHg 70%
    21:00 +9°C° 0 mm 3 m/s 750 mmHg 71%
    22:00 +9°C° 0 mm 3 m/s 750 mmHg 71%
    23:00 +8°C° 0.1 mm 4 m/s 750 mmHg 73%

    Amanhã, 23 Outubro, Terça-feira

    Tempo Temperatura Precipitação Vento Pressão Humidade
    00:00 +10°C° 0.1 mm 4 m/s 750 mmHg 74%
    01:00 +10°C° 0.1 mm 4 m/s 750 mmHg 75%
    02:00 +10°C° 0.1 mm 4 m/s 750 mmHg 77%
    03:00 +9°C° 0.1 mm 5 m/s 750 mmHg 78%
    04:00 +9°C° 0.1 mm 5 m/s 750 mmHg 79%
    05:00 +8°C° 0 mm 4 m/s 750 mmHg 79%
    06:00 +7°C° 0 mm 4 m/s 750 mmHg 79%
    07:00 +7°C° 0 mm 4 m/s 750 mmHg 80%
    08:00 +8°C° 0 mm 4 m/s 750 mmHg 74%
    09:00 +9°C° 0 mm 5 m/s 750 mmHg 68%
    10:00 +10°C° 0 mm 5 m/s 749 mmHg 63%
    11:00 +11°C° 0 mm 6 m/s 748 mmHg 59%
    12:00 +13°C° 0 mm 6 m/s 748 mmHg 55%
    13:00 +14°C° 0 mm 7 m/s 747 mmHg 52%
    14:00 +12°C° 0 mm 7 m/s 746 mmHg 53%
    15:00 +12°C° 0 mm 7 m/s 746 mmHg 54%
    16:00 +12°C° 0 mm 7 m/s 745 mmHg 56%
    17:00 +11°C° 0.2 mm 7 m/s 745 mmHg 57%
    18:00 +11°C° 0.2 mm 8 m/s 745 mmHg 59%
    19:00 +10°C° 0.2 mm 8 m/s 745 mmHg 60%
    20:00 +10°C° 0.1 mm 8 m/s 744 mmHg 62%
    21:00 +10°C° 0.1 mm 9 m/s 744 mmHg 64%
    22:00 +10°C° 0.1 mm 9 m/s 744 mmHg 66%
    23:00 +10°C° 0 mm 9 m/s 743 mmHg 66%

    Depois de amanhã, 24 Outubro, Quarta-feira

    Tempo Temperatura Precipitação Vento Pressão Humidade
    00:00 +11°C° 0 mm 10 m/s 742 mmHg 66%
    01:00 +11°C° 0 mm 10 m/s 742 mmHg 66%
    02:00 +11°C° 0 mm 10 m/s 741 mmHg 66%
    03:00 +11°C° 0 mm 10 m/s 741 mmHg 66%
    04:00 +11°C° 0 mm 11 m/s 740 mmHg 66%
    05:00 +12°C° 0.1 mm 11 m/s 739 mmHg 66%
    06:00 +12°C° 0.1 mm 11 m/s 739 mmHg 66%
    07:00 +12°C° 0.1 mm 11 m/s 739 mmHg 66%
    08:00 +12°C° 0.4 mm 12 m/s 739 mmHg 66%
    09:00 +13°C° 0.4 mm 12 m/s 739 mmHg 67%
    10:00 +13°C° 0.4 mm 12 m/s 739 mmHg 68%
    11:00 +12°C° 1.1 mm 11 m/s 739 mmHg 70%
    12:00 +12°C° 1.1 mm 10 m/s 739 mmHg 72%
    13:00 +11°C° 1.1 mm 10 m/s 739 mmHg 73%
    14:00 +11°C° 1.5 mm 9 m/s 740 mmHg 73%
    15:00 +11°C° 1.5 mm 9 m/s 740 mmHg 72%
    16:00 +10°C° 1.5 mm 8 m/s 740 mmHg 71%
    17:00 +9°C° 0.4 mm 8 m/s 741 mmHg 70%
    18:00 +9°C° 0.4 mm 7 m/s 742 mmHg 70%
    19:00 +8°C° 0.4 mm 7 m/s 743 mmHg 69%
    20:00 +7°C° 0 mm 6 m/s 744 mmHg 70%
    21:00 +7°C° 0 mm 6 m/s 745 mmHg 70%
    22:00 +6°C° 0 mm 5 m/s 745 mmHg 71%
    23:00 +6°C° 0 mm 5 m/s 746 mmHg 72%

    25 Outubro, Quinta-feira

    Tempo Temperatura Precipitação Vento Pressão Humidade
    00:00 +6°C° 0 mm 5 m/s 746 mmHg 73%
    01:00 +5°C° 0 mm 5 m/s 746 mmHg 75%
    02:00 +5°C° 0 mm 5 m/s 746 mmHg 76%
    03:00 +5°C° 0 mm 5 m/s 746 mmHg 78%
    04:00 +5°C° 0 mm 5 m/s 746 mmHg 79%
    05:00 +5°C° 0 mm 4 m/s 746 mmHg 80%
    06:00 +5°C° 0 mm 4 m/s 747 mmHg 82%
    07:00 +5°C° 0 mm 4 m/s 747 mmHg 83%
    08:00 +7°C° 0 mm 5 m/s 747 mmHg 78%
    09:00 +8°C° 0 mm 5 m/s 747 mmHg 72%
    10:00 +10°C° 0 mm 6 m/s 747 mmHg 67%
    11:00 +12°C° 0 mm 5 m/s 746 mmHg 65%
    12:00 +13°C° 0 mm 5 m/s 746 mmHg 64%
    13:00 +13°C° 0 mm 4 m/s 746 mmHg 63%
    14:00 +13°C° 0 mm 4 m/s 745 mmHg 64%
    15:00 +13°C° 0 mm 3 m/s 745 mmHg 66%
    16:00 +13°C° 0 mm 3 m/s 744 mmHg 67%
    17:00 +12°C° 0 mm 3 m/s 744 mmHg 72%
    18:00 +11°C° 0 mm 3 m/s 744 mmHg 76%
    19:00 +10°C° 0 mm 2 m/s 744 mmHg 81%
    20:00 +9°C° 0 mm 2 m/s 744 mmHg 83%
    21:00 +9°C° 0 mm 2 m/s 744 mmHg 85%
    22:00 +9°C° 0 mm 2 m/s 744 mmHg 86%
    23:00 +8°C° 0 mm 2 m/s 744 mmHg 87%

    26 Outubro, Sexta-feira

    Tempo Temperatura Precipitação Vento Pressão Humidade
    00:00 +8°C° 0 mm 2 m/s 744 mmHg 88%
    01:00 +9°C° 0 mm 1 m/s 743 mmHg 88%
    02:00 +8°C° 0 mm 1 m/s 743 mmHg 88%
    03:00 +8°C° 0 mm 1 m/s 743 mmHg 88%
    04:00 +8°C° 0 mm 1 m/s 742 mmHg 88%
    05:00 +8°C° 0 mm 1 m/s 742 mmHg 89%
    06:00 +8°C° 0 mm 1 m/s 742 mmHg 89%
    07:00 +7°C° 0 mm 1 m/s 741 mmHg 90%
    08:00 +9°C° 0 mm 1 m/s 741 mmHg 82%
    09:00 +11°C° 0 mm 1 m/s 741 mmHg 74%
    10:00 +13°C° 0 mm 2 m/s 740 mmHg 67%
    11:00 +14°C° 0 mm 2 m/s 740 mmHg 63%
    12:00 +15°C° 0 mm 2 m/s 739 mmHg 59%
    13:00 +17°C° 0 mm 2 m/s 739 mmHg 55%
    14:00 +16°C° 0 mm 2 m/s 738 mmHg 58%
    15:00 +16°C° 0 mm 2 m/s 738 mmHg 62%
    16:00 +15°C° 0 mm 2 m/s 737 mmHg 65%
    17:00 +14°C° 0 mm 2 m/s 737 mmHg 71%
    18:00 +13°C° 0 mm 2 m/s 737 mmHg 76%
    19:00 +12°C° 0 mm 1 m/s 737 mmHg 81%
    20:00 +12°C° 0 mm 1 m/s 737 mmHg 82%
    21:00 +12°C° 0 mm 1 m/s 737 mmHg 83%
    22:00 +11°C° 0 mm 1 m/s 737 mmHg 84%
    23:00 +11°C° 0 mm 1 m/s 737 mmHg 85%

    27 Outubro, Sábado

    Tempo Temperatura Precipitação Vento Pressão Humidade
    00:00 +11°C° 0 mm 1 m/s 736 mmHg 85%
    01:00 +11°C° 0 mm 1 m/s 736 mmHg 86%
    02:00 +10°C° 0 mm 1 m/s 736 mmHg 86%
    03:00 +10°C° 0 mm 1 m/s 736 mmHg 87%
    04:00 +10°C° 0 mm 1 m/s 735 mmHg 88%
    05:00 +10°C° 0 mm 1 m/s 735 mmHg 89%
    06:00 +10°C° 0 mm 1 m/s 735 mmHg 90%
    07:00 +10°C° 0 mm 1 m/s 734 mmHg 91%
    08:00 +12°C° 0 mm 2 m/s 734 mmHg 84%
    09:00 +13°C° 0 mm 3 m/s 733 mmHg 77%
    10:00 +15°C° 0 mm 4 m/s 733 mmHg 69%
    11:00 +16°C° 0 mm 5 m/s 732 mmHg 63%
    12:00 +19°C° 0 mm 5 m/s 732 mmHg 57%
    13:00 +20°C° 0 mm 6 m/s 731 mmHg 51%
    14:00 +20°C° 0 mm 5 m/s 731 mmHg 54%
    15:00 +19°C° 0 mm 5 m/s 730 mmHg 57%
    16:00 +18°C° 0 mm 4 m/s 730 mmHg 61%
    17:00 +17°C° 0.1 mm 4 m/s 730 mmHg 64%
    18:00 +15°C° 0.1 mm 5 m/s 731 mmHg 68%
    19:00 +14°C° 0.1 mm 5 m/s 731 mmHg 72%
    20:00 +11°C° 0.9 mm 6 m/s 731 mmHg 74%
    21:00 +9°C° 0.9 mm 6 m/s 732 mmHg 77%
    22:00 +7°C° 0.9 mm 6 m/s 732 mmHg 79%
    23:00 +7°C° 0.9 mm 6 m/s 732 mmHg 79%
    Mostrar mais